TimeMST,TemperatureF,Dew PointF,Humidity,Sea Level PressureIn,VisibilityMPH,Wind Direction,Wind SpeedMPH,Gust SpeedMPH,PrecipitationIn,Events,Conditions,WindDirDegrees,DateUTC
1:45 AM,63,59,82,29.94,2,South,2.2,,,,Mostly Cloudy,170,2013-01-03 08:45:00
4:50 AM,63,61,89,29.99,2,Calm,Calm,,,,Mostly Cloudy,,2013-01-03 11:50:00
5:56 AM,60.8,55.4,82,29.98,7.0,Calm,Calm,-,N/A,,Mostly Cloudy,0,2013-01-03 12:56:00
6:54 AM,60.8,57.2,88,29.99,8.0,Calm,Calm,-,N/A,,Mostly Cloudy,0,2013-01-03 13:54:00
7:10 AM,62.6,57.2,82,30.00,7.0,North,4.6,-,N/A,,Overcast,350,2013-01-03 14:10:00
7:40 AM,63,61,89,30.04,16,ENE,2.2,,,,Mostly Cloudy,60,2013-01-03 14:40:00
7:49 AM,62.6,59.0,88,30.09,7.0,Calm,Calm,-,N/A,,Overcast,0,2013-01-03 14:49:00
8:48 AM,62.6,59.0,88,30.04,8.0,Calm,Calm,-,N/A,,Overcast,0,2013-01-03 15:48:00
9:48 AM,62.6,57.2,82,30.07,8.0,NNE,4.6,-,N/A,,Overcast,30,2013-01-03 16:48:00
10:47 AM,64.4,57.2,77,30.12,8.0,NE,6.9,-,N/A,,Overcast,50,2013-01-03 17:47:00
10:50 AM,65,58,71,30.05,16,NNE,4.5,,,Rain,Light Rain,30,2013-01-03 17:50:00
11:48 AM,64.4,55.4,73,30.05,10.0,NNE,9.2,-,N/A,,Overcast,30,2013-01-03 18:48:00
12:41 PM,66.2,53.6,64,30.03,10.0,NNE,10.4,-,N/A,,Overcast,30,2013-01-03 19:41:00
1:50 PM,71,57,51,30.00,19,NNW,4.5,,,,Partly Cloudy,330,2013-01-03 20:50:00
1:52 PM,68.0,55.4,64,30.09,10.0,NE,8.1,-,N/A,,Mostly Cloudy,40,2013-01-03 20:52:00
2:51 PM,69.8,53.6,56,29.99,10.0,North,10.4,-,N/A,,Scattered Clouds,350,2013-01-03 21:51:00
3:44 PM,69.8,53.6,56,30.00,10.0,NNE,17.3,-,N/A,,Scattered Clouds,30,2013-01-03 22:44:00
4:41 PM,68.0,53.6,60,30.06,10.0,North,8.1,-,N/A,,Scattered Clouds,10,2013-01-03 23:41:00
4:50 PM,68,56,57,30.01,19,North,6.7,,,,Scattered Clouds,0,2013-01-03 23:50:00
5:46 PM,66.2,53.6,64,30.02,10.0,NNE,6.9,-,N/A,,Scattered Clouds,30,2013-01-04 00:46:00
6:40 PM,64.4,53.6,68,30.03,10.0,North,12.7,-,N/A,,Scattered Clouds,10,2013-01-04 01:40:00
7:40 PM,64.4,53.6,68,30.10,10.0,NNE,12.7,-,N/A,,Scattered Clouds,20,2013-01-04 02:40:00
7:50 PM,65,56,64,30.06,2,North,6.7,,,,Scattered Clouds,0,2013-01-04 02:50:00
8:40 PM,64.4,51.8,64,30.06,10.0,North,13.8,-,N/A,,Scattered Clouds,10,2013-01-04 03:40:00
9:48 PM,64.4,51.8,64,30.08,10.0,NNE,10.4,-,N/A,,Scattered Clouds,30,2013-01-04 04:48:00
10:43 PM,62.6,51.8,68,30.14,10.0,NNE,10.4,-,N/A,,Partly Cloudy,20,2013-01-04 05:43:00
10:45 PM,64,52,57,30.05,2,North,6.7,,,,Scattered Clouds,10,2013-01-04 05:45:00